Погода в Каменске

Россия / Республика Бурятия     51°59′00″N   106°35′02″E
темп.,
°C
ветер,
м/с
пор.,
м/с
влажн.,
%
обл.,
%
осадки,
мм/ч
давл.,
гПа
погр.,
м
18 мая, вт
вт1823:00+5зюз3109198 0.1 1009290
02:00+5зюз3890100 0.4 1010340
05:00+5зюз3895100 0.6 1011404
08:00+6зюз378995 1.0 1012546
11:00+8зюз567043 0.7 10111255
14:00+12з674536 0.8 10091717
17:00+13з464296 0.0 10061282
20:00+10ююз0155100 0.0 100410
19 мая, ср
ср1923:00+7юв2372100 0.0 100046
02:00+8ю2373100 0.0 99562
05:00+7ссв1291100 1.1 99464
08:00+3с2895100 3.8 1003342
11:00+5зсз2692100 0.1 1007575
14:00+10зюз456087 0.3 10061408
17:00+12ююз2246100 0.0 1003860
20:00+9в1159100 0.0 100211
20 мая, чт
чт2023:00+7юв3461100 0.0 100070
02:00+7всв247398 0.2 998123
05:00+1с1292100 0.0 100147
08:00+5з2377100 0.0 1003342
11:00+7сз3369100 0.0 1005702
14:00+10с3359100 0.0 1004907
17:00+9ссв436297 0.0 1002630
20:00+5ссз2277100 0.0 100179
21 мая, пт
пт2123:00+5ссз1282100 0.0 100046
02:00+3св2391100 0.1 99869
05:00+1з1195100 0.0 99940
08:00+5зсз3375100 0.0 1001418
11:00+7сз436798 0.0 1002761
14:00+4зсз2378100 0.0 1003549
17:00+3зюз3590100 0.0 1005353
20:000зюз4699100 4.1 1006243
22 мая, сб
сб2223:000зюз4999100 7.9 1007490
02:00+1зюз3899100 9.9 1006600
05:000зюз38100100 3.1 1006581
08:00+1зсз410100100 8.9 1006779
11:00+3зсз41197100 5.2 1007812
14:00+6сз61284100 6.8 10071134
17:00+7зсз5118245 1.3 10071041
20:00+5з5148895 2.6 1008500